Regional Weather Roundup
Issued by NWS

Home | Current Version | Previous Version | Text Only | Print | Product List | Glossary Off
Versions: 1 2 3 4 5 6 7 8 9 10 11 12 13 14 15 16 17 18 19 20 21 22 23 24 25 26 27 28 29 30 31 32 33 34 35 36 37 38 39 40 41 42 43 44 45 46 47 48 49 50

000
ASUS43 KMKX 220900
RWRWI

WISCONSIN REGIONAL WEATHER ROUNDUP
NATIONAL WEATHER SERVICE MILWAUKEE/SULLIVAN WI
400 AM CDT MON SEP 22 2014

NOTE: "FAIR" INDICATES FEW OR NO CLOUDS BELOW 12,000 FEET WITH NO
SIGNIFICANT WEATHER AND/OR OBSTRUCTIONS TO VISIBILITY.

WIZ001-002-006>008-014>016-023>028-221000-
NORTHWEST WISCONSIN

CITY           SKY/WX    TMP DP  RH WIND       PRES   REMARKS
SUPERIOR ARPT  CLEAR     45  44  98 SW7       30.18S
ASHLAND        CLOUDY    47  45  93 SW6       30.17S
HAYWARD        CLEAR     38  37  97 CALM      30.20S
SIREN          CLEAR     42  40  93 CALM      30.21S
RICE LAKE      FOG       42  41  97 CALM      30.22R VSB 1
LADYSMITH      CLEAR     39  38  97 CALM      30.21R
EAU CLAIRE     NOT AVBL
MENOMONIE      SUNNY     46  44  93 CALM      30.22R
NEW RICHMOND   CLEAR     43  43 100 CALM      30.22S FOG
OSCEOLA        CLEAR     43  43 100 CALM      30.24S
$$

WIZ003>005-009-010-017-018-221000-
NORTH CENTRAL WISCONSIN

CITY           SKY/WX    TMP DP  RH WIND       PRES   REMARKS
WOODRUFF       CLEAR     39  37  94 CALM      30.16S
RHINELANDER    CLEAR     39  38  96 W7        30.18R WCI  34
EAGLE RIVER    FOG       32  32 100 CALM      30.15R VSB 3/4
LAND O LAKES   CLEAR     31  31 100 CALM      30.16R FOG
PHILLIPS       CLEAR     36  36 100 CALM      30.18S
TOMAHAWK       CLEAR     32  32  99 CALM      30.18S
MEDFORD        CLEAR     41  39  93 CALM      30.20R
MERRILL        CLEAR     34  34  99 CALM      30.19R
$$

WIZ029-030-035-036-043>047-221000-
CENTRAL WISCONSIN

CITY           SKY/WX    TMP DP  RH WIND       PRES   REMARKS
WAUSAU         CLEAR     42  39  89 NW6       30.19R
MOSINEE        CLEAR     39  39 100 W8        30.20R WCI  34
MARSHFIELD     CLEAR     43  40  89 W6        30.20S
STEVENS POINT  CLEAR     34  33  95 CALM      30.20R
WAUPACA        CLEAR     41  39  95 CALM      30.19R
WAUTOMA        NOT AVBL
WISC RAPIDS    CLEAR     40  38  93 CALM      30.22R
CAMP DOUGLAS   FOG       34  34 100 NW2       30.22R VSB 3/4
$$

WIZ011>013-019>022-031-037>040-048>050-221000-
NORTHEAST WISCONSIN

CITY           SKY/WX    TMP DP  RH WIND       PRES   REMARKS
ANTIGO         CLEAR     36  35  99 CALM      30.18R
STURGEON BAY   CLEAR     41  36  81 CALM      30.17R
GREEN BAY      CLEAR     39  38  96 CALM      30.18R
MANITOWOC      NOT AVBL
APPLETON       CLEAR     37  37 100 W7        30.18S WCI  32
CLINTONVILLE   CLEAR     37  37 100 CALM      30.18S
OSHKOSH        CLEAR     42  39  89 W5        30.18R
$$

WIZ032>034-041-042-053>061-221000-
SOUTHWEST WISCONSIN

CITY           SKY/WX    TMP DP  RH WIND       PRES   REMARKS
LA CROSSE      CLEAR     47  45  93 SE5       30.23R
SPARTA         CLEAR     35  35  99 CALM      30.24R
VIROQUA        FAIR      43  43 100 CALM      30.22S
BOSCOBEL       FOG       46  45  96 CALM      30.24S VSB 1/4
PRAIRIE DU CHI MOCLDY    45  44  95 CALM      30.24R
PLATTEVILLE    FAIR      40  39  95 N3        30.23S
$$

WIZ056-057-062-063-064-067-068-221000-
SOUTH CENTRAL WISCONSIN

CITY           SKY/WX    TMP DP  RH WIND       PRES   REMARKS
BARABOO/DELLS  CLEAR     39  38  95 CALM      30.21S
LONE ROCK      PTCLDY    45  39  81 W5        30.24R
WATERTOWN      CLEAR     37  37 100 CALM      30.19S
MADISON        CLEAR     41  38  89 CALM      30.21R
MIDDLETON      FAIR      40  40  99 W5        30.21R
MONROE         CLEAR     45  41  87 N6        30.21R
JANESVILLE     CLEAR     41  39  93 NW3       30.21R FOG
$$

WIZ051-052-058>065-066-070>072-221000-
SOUTHEAST WISCONSIN

CITY           SKY/WX    TMP DP  RH WIND       PRES   REMARKS
MILWAUKEE      CLEAR     44  37  76 NW3       30.19R
WAUKESHA       CLEAR     37  36  93 CALM      30.20R
MILWAUKEE/TIMM CLEAR     41  36  81 CALM      30.20R
RACINE         CLEAR     44  40  85 NW7       30.21R
BURLINGTON     CLEAR     36  36 100 SW3       30.20R
KENOSHA        CLEAR     43  40  89 NW5       30.19S
FOND DU LAC    CLEAR     39  37  92 CALM      30.19R
SHEBOYGAN      CLEAR     37  35  92 CALM      30.18R
WEST BEND      CLEAR     37  36  93 CALM      30.19R
JUNEAU         CLEAR     37  37  98 S3        30.20R
$$

LSZ147-162-221000-
LAKE SUPERIOR

STATION/POSITION TIME  TEMP    WIND        PRES    WAVE
                       AIR SEA DIR/SP/G            HT/PER
                 (UTC) (F)     (DEG/KT/KT) (MB)    (FT/S)
W MID LAKE BUOY  0750   49 46  250/  8/ 10 1020.1F   1/ 5
DEVILS ISLAND    0800   52     240/ 13/ 16 1021.0F
PORT WING        0800   51     190/  5/  7 1021.3F
SAXON HARBOR     0800   47     190/  6/  9 1021.0F
$$

LMZ867-665-643>646-221000-
LAKE MICHIGAN

STATION/POSITION TIME  TEMP    WIND        PRES    WAVE
                       AIR SEA DIR/SP/G            HT/PER
                 (UTC) (F)     (DEG/KT/KT) (MB)    (FT/S)
N MID LAKE BUOY  0750   48 57  340/ 14/ 16 1020.2F   3/ 4
NORTHPORT PIER   0800   49     330/  9/ 13 1020.3S
KEWAUNEE LAKESHO 0800   41     300/  4/  4 1020.4R
SHEBOYGAN LAKESH 0800   45 51  300/  7/  8 1022.2F
PORT WASHINGTON  0800   44     290/  4/  6 1022.7R
ATWATER BUOY     0800   49     330/  8/ 12 1022.9S
MILWAUKEE LAKESH 0800   47     320/  5/  7   N/A
S MID LAKE BUOY  0750   53 61  340/ 17/ 21 1021.3R   8/ 8
KENOSHA   LAKESH 0800   47     320/  9/ 10 1022.0R
$$

TC  - TEMPERATURE IN CELSIUS
VSB - VISIBILITY IN STATUTE MILES
WCI - WIND CHILL INDEX
HX  - HEAT INDEX




USA.gov is the U.S. government's official web portal to all federal, state and local government web resources and services.